Location: Kearney
(40.6990°N, 99.0810°W)
Time: 15:51:38
(UTC-06:00)

USA 161 - Pass Details

Date: 18 December 2017
Orbit: 386 x 391 km, 97.0° (Epoch: 27 September)

Event Time Altitude Azimuth Distance (km) Brightness Sun altitude
Rises 18:05:39 0° 355° (N) 2,221 5.2 -10.1°
Reaches altitude 10° 18:07:55 10° 336° (NNW) 1,391 4.4 -10.5°
Maximum altitude 18:10:07 19° 289° (WNW) 992 4.3 -10.9°
Drops below altitude 10° 18:12:20 10° 241° (WSW) 1,410 5.9 -11.3°
Sets 18:14:39 0° 223° (SW) 2,263 6.7 -11.7°
